Location: Star Hoppers Observatory
(42.7905°N, 83.6127°W)
Time: 10:17:55
(UTC-05:00)

Amateur Radio Satellites - All Passes

Search period start: 24 January 2017 09:47
Search period end: 25 January 2017 09:47
Location: Star Hoppers Observatory, 42.7905°N, 83.6127°W

Satellite Date Start Highest point End Downlink Frequencies (MHz)
Time Altitude Azimuth
QB50P2 24 Jan 09:58:39 09:59:28 10° 60° (ENE) 10:00:18 145.880/145.840
CUBEBUG 2 24 Jan 10:00:50 10:04:09 21° 293° (WNW) 10:07:32 437.445
HUMSAT D 24 Jan 10:00:55 10:04:33 26° 95° (E) 10:08:10 437.325/437.525
FUNcube-1 24 Jan 10:02:25 10:06:43 52° 287° (WNW) 10:11:05 145.935
COMPASS 1 24 Jan 10:11:14 10:13:37 15° 296° (WNW) 10:16:00 437.405
POPSAT HIP 1 24 Jan 10:17:14 10:19:40 15° 64° (ENE) 10:22:07 437.405
AAUSAT CUBESAT 2 24 Jan 10:17:50 10:20:25 16° 296° (WNW) 10:22:58 437.432
HO-68 24 Jan 10:18:11 10:23:23 22° 305° (NW) 10:28:34 435.675
UWE-3 24 Jan 10:20:03 10:23:22 21° 294° (WNW) 10:26:44 435.000/436.395/437.385
DUCHIFAT 1 24 Jan 10:22:32 10:24:55 15° 63° (ENE) 10:27:19 145.980
JAS-2 24 Jan 10:23:52 10:29:12 58° 70° (ENE) 10:35:12 435.910
ZACube-1 24 Jan 10:28:35 10:32:18 27° 292° (WNW) 10:36:03 437.345
NANOSAT C BR1 24 Jan 10:29:43 10:32:42 19° 66° (ENE) 10:35:43 145.865
BY70-1 24 Jan 10:44:14 10:45:34 12° 91° (E) 10:46:52 436.1900
PCSat 24 Jan 10:48:27 10:52:20 20° 254° (WSW) 10:56:11 145.827
UNISAT 6 24 Jan 10:51:23 10:54:45 22° 266° (W) 10:58:08 437.425
DELFI C3 24 Jan 10:55:16 10:59:00 39° 288° (WNW) 11:02:42 145.870
Oscar 11 24 Jan 10:57:35 11:00:22 17° 296° (WNW) 11:03:09 145.826/435.025
TIGRISAT 24 Jan 11:03:51 11:06:47 18° 267° (W) 11:09:44 435.000
ANTELSAT 24 Jan 11:22:03 11:23:25 11° 271° (W) 11:24:46 437.575/2403.000
QB50P1 24 Jan 11:23:25 11:27:36 81° 75° (ENE) 11:31:48 145.935-145.965
POLYITAN 1 24 Jan 11:29:01 11:33:12 87° 251° (WSW) 11:37:26 437.675
QB50P2 24 Jan 11:30:26 11:34:38 79° 258° (WSW) 11:38:51 145.880/145.840
HUMSAT D 24 Jan 11:36:24 11:40:07 29° 291° (WNW) 11:43:50 437.325/437.525
Cosmos 2491 24 Jan 11:45:59 11:52:51 24° 64° (ENE) 11:59:40 435.465 / 435.565
POPSAT HIP 1 24 Jan 11:50:59 11:55:03 50° 260° (W) 11:59:08 437.405
CUSAT 1 24 Jan 11:52:00 11:54:44 12° 52° (NE) 11:57:23 437.405
SPROUT 24 Jan 11:53:01 11:55:23 14° 91° (E) 11:57:43 437.525
DUCHIFAT 1 24 Jan 11:56:08 12:00:11 51° 260° (W) 12:04:15 145.980
VELOX 1 24 Jan 11:56:41 12:00:03 21° 94° (E) 12:03:24 145.980
ESTCUBE 1 24 Jan 12:03:51 12:08:24 73° 103° (ESE) 12:12:54 437.505/2401.250
NANOSAT C BR1 24 Jan 12:04:17 12:08:10 37° 262° (W) 12:12:05 145.865
JAS-2 24 Jan 12:11:01 12:14:54 19° 272° (W) 12:19:04 435.910
BUGSAT 1 24 Jan 12:12:30 12:16:34 86° 75° (ENE) 12:20:36 437.445
BY70-1 24 Jan 12:13:08 12:15:56 29° 290° (WNW) 12:18:33 436.1900
Oscar 19 24 Jan 12:13:37 12:17:58 28° 65° (ENE) 12:22:21 437.125/150
DX 1 24 Jan 12:14:39 12:17:15 15° 92° (E) 12:19:50 434.975-435.025
CUBEBUG 1 24 Jan 12:30:54 12:35:14 84° 101° (E) 12:39:33 437.445
AO-85 24 Jan 12:50:51 12:55:13 37° 117° (ESE) 12:59:17 145.980
AO-7 24 Jan 12:56:04 13:00:49 17° 45° (NE) 13:05:33 29.400- 29.500
50 SAT 24 Jan 12:58:31 13:02:05 84° 100° (E) 13:05:36 437.505
AISAT 24 Jan 12:59:10 13:03:34 77° 284° (WNW) 13:07:55 437.250
Gurwin Techsat 1B 24 Jan 13:02:44 13:07:41 42° 69° (ENE) 13:12:40 435.225
TISAT 1 24 Jan 13:05:38 13:07:21 12° 90° (E) 13:09:05 437.305
ITAMSAT 1 24 Jan 13:10:12 13:11:10 10° 55° (NE) 13:12:09 435.822/435.867
DANDE 24 Jan 13:23:19 13:29:19 22° 63° (ENE) 13:35:30 436.750
SPROUT 24 Jan 13:27:27 13:31:35 50° 287° (WNW) 13:35:42 437.525
CUSAT 1 24 Jan 13:30:52 13:38:40 53° 73° (ENE) 13:45:37 437.405
VELOX 1 24 Jan 13:32:35 13:36:36 36° 291° (WNW) 13:40:37 145.980
UKube-1 24 Jan 13:39:26 13:43:46 86° 284° (WNW) 13:48:03 .
Cosmos 2491 24 Jan 13:41:51 13:50:39 77° 265° (W) 13:59:26 435.465 / 435.565
ESTCUBE 1 24 Jan 13:42:33 13:44:36 13° 299° (WNW) 13:46:37 437.505/2401.250
AIST 1 24 Jan 13:46:18 13:50:37 65° 96° (E) 13:54:55
YUBILEINY 24 Jan 13:46:46 13:55:11 52° 89° (E) 14:03:36 435.215
DX 1 24 Jan 13:49:31 13:53:43 49° 288° (WNW) 13:57:53 434.975-435.025
Oscar 19 24 Jan 13:52:16 13:57:07 39° 262° (W) 14:01:59 437.125/150
SO-50 24 Jan 13:59:41 14:00:59 11° 31° (NNE) 14:02:17 436.795
Cosmos 2504 24 Jan 14:07:06 14:14:46 38° 87° (E) 14:21:59 435.465 / 435.565
CUBEBUG 1 24 Jan 14:10:07 14:10:50 10° 300° (WNW) 14:11:35 437.445
BEESAT 24 Jan 14:17:25 14:20:24 16° 91° (E) 14:23:22 436.000
SWISSCUBE 24 Jan 14:19:13 14:22:37 19° 93° (E) 14:26:01 437.505
AO-85 24 Jan 14:31:43 14:35:41 28° 313° (NW) 14:39:25 145.980
O/OREOS (USA 219) 24 Jan 14:37:27 14:40:49 20° 55° (NE) 14:44:10 437.305
TISAT 1 24 Jan 14:39:14 14:43:22 58° 286° (WNW) 14:47:27 437.305
BEESAT 3 24 Jan 14:40:50 14:43:10 15° 110° (ESE) 14:45:30 437.485
Gurwin Techsat 1B 24 Jan 14:43:22 14:47:46 26° 266° (W) 14:52:11 435.225
AO-7 24 Jan 14:43:47 14:52:01 66° 66° (ENE) 15:00:17 29.400- 29.500
ITAMSAT 1 24 Jan 14:44:34 14:49:43 74° 73° (ENE) 14:54:54 435.822/435.867
BRITE-PL 24 Jan 14:57:38 14:59:15 11° 58° (ENE) 15:00:52 437.365/2234.400
DANDE 24 Jan 15:04:51 15:12:59 90° 93° (E) 15:21:17 436.750
MOZHAYETS 4 24 Jan 15:09:41 15:12:48 18° 91° (E) 15:15:55
CUSAT 1 24 Jan 15:13:20 15:20:13 34° 274° (W) 15:26:27 437.405
ITUPSAT 1 24 Jan 15:22:12 15:27:01 70° 103° (ESE) 15:31:48 437.325
AIST 1 24 Jan 15:27:04 15:28:40 12° 293° (WNW) 15:30:17
BEESAT 2 24 Jan 15:34:36 15:37:51 25° 114° (ESE) 15:41:09 435.950
SO-50 24 Jan 15:38:02 15:42:29 54° 52° (NE) 15:46:52 436.795
Cosmos 2491 24 Jan 15:41:30 15:45:55 15° 286° (WNW) 15:50:21 435.465 / 435.565
YUBILEINY 24 Jan 15:44:13 15:52:13 37° 290° (WNW) 16:00:17 435.215
BEESAT 24 Jan 15:53:50 15:58:32 56° 288° (WNW) 16:03:13 436.000
SWISSCUBE 24 Jan 15:56:02 16:00:39 48° 289° (WNW) 16:05:15 437.505
Cosmos 2504 24 Jan 15:59:47 16:07:58 48° 285° (WNW) 16:15:40 435.465 / 435.565
CUBESAT XI-V 24 Jan 16:09:23 16:10:38 11° 88° (E) 16:11:54 437.345
GOMX 1 24 Jan 16:13:25 16:17:17 21° 65° (ENE) 16:21:00 467.674
O/OREOS (USA 219) 24 Jan 16:16:08 16:20:27 46° 253° (WSW) 16:24:46 437.305
BEESAT 3 24 Jan 16:16:36 16:20:23 48° 308° (NW) 16:24:13 437.485
ITAMSAT 1 24 Jan 16:27:07 16:29:43 14° 270° (W) 16:32:20 435.822/435.867
AUBIESAT-1 24 Jan 16:27:32 16:29:47 17° 100° (E) 16:32:01 437.475
CUTE-I 24 Jan 16:30:56 16:33:46 15° 58° (ENE) 16:36:36 437.470
BRITE-PL 24 Jan 16:31:09 16:36:48 70° 74° (ENE) 16:42:18 437.365/2234.400
DOVE 4 24 Jan 16:31:24 16:32:54 11° 61° (ENE) 16:34:24 437.250
AO-7 24 Jan 16:38:18 16:45:17 29° 265° (W) 16:52:21 29.400- 29.500
MOZHAYETS 4 24 Jan 16:45:44 16:50:14 49° 288° (WNW) 16:54:42
DANDE 24 Jan 16:49:10 16:54:48 21° 278° (W) 17:00:31 436.750
KKS-1 24 Jan 16:51:33 16:55:56 60° 101° (E) 17:00:18 437.445
LilacSat-2 24 Jan 16:56:01 16:58:28 17° 66° (ENE) 17:00:56 437.200
HORYU 2 24 Jan 16:59:28 17:03:47 59° 73° (ENE) 17:08:08 437.375
ITUPSAT 1 24 Jan 17:01:37 17:04:16 15° 300° (WNW) 17:06:54 437.325
NOAA 15 24 Jan 17:05:40 17:10:14 30° 65° (ENE) 17:14:49 137.62
BEESAT 2 24 Jan 17:11:57 17:15:31 31° 312° (NW) 17:19:08 435.950
Cubesat XI-IV 24 Jan 17:13:23 17:18:04 33° 66° (ENE) 17:22:47 437.490
HO-68 24 Jan 17:15:29 17:18:49 14° 49° (NE) 17:22:10 435.675
SO-50 24 Jan 17:19:33 17:22:31 17° 250° (WSW) 17:25:26 436.795
M-CUBED/EXP-1 PRIME 24 Jan 17:28:31 17:31:46 51° 291° (WNW) 17:34:55 437.505
STARS 24 Jan 17:31:38 17:36:01 74° 102° (ESE) 17:40:23 437.465
CUBESAT XI-V 24 Jan 17:43:53 17:48:35 78° 284° (WNW) 17:53:13 437.345
GOMX 1 24 Jan 17:49:50 17:55:01 53° 260° (W) 17:59:58 467.674
NOAA 18 24 Jan 17:55:14 18:00:26 45° 69° (ENE) 18:05:37 137.9125
CANX-2 24 Jan 17:55:52 17:57:12 11° 61° (ENE) 17:58:33 2200.000
AUBIESAT-1 24 Jan 18:01:28 18:04:16 25° 296° (WNW) 18:07:01 437.475
DOVE 4 24 Jan 18:05:06 18:10:01 86° 260° (W) 18:14:38 437.250
CUTE-I 24 Jan 18:07:47 18:13:06 83° 256° (WSW) 18:18:27 437.470
Cosmos 2499 24 Jan 18:09:18 18:14:40 19° 80° (E) 18:19:47 435.465 / 435.565
BRITE-PL 24 Jan 18:12:03 18:15:40 17° 270° (W) 18:19:15 437.365/2234.400
AIST 2 24 Jan 18:13:57 18:17:21 25° 113° (ESE) 18:20:47 435.215
LilacSat-2 24 Jan 18:28:59 18:32:28 36° 263° (W) 18:36:00 437.200
KKS-1 24 Jan 18:29:33 18:32:01 15° 298° (WNW) 18:34:28 437.445
GONETS M04 24 Jan 18:36:54 18:43:38 26° 80° (E) 18:50:23
HORYU 2 24 Jan 18:38:35 18:40:43 13° 269° (W) 18:42:51 437.375
NOAA 15 24 Jan 18:45:00 18:49:52 37° 263° (W) 18:54:48 137.62
Cubesat XI-IV 24 Jan 18:53:20 18:58:05 33° 263° (W) 19:02:53 437.490
HO-68 24 Jan 18:58:06 19:05:12 65° 69° (ENE) 19:12:18 435.675
CUTE 1.7 + AOD 2 24 Jan 18:58:09 19:02:10 43° 72° (ENE) 19:06:14 437.475
CINEMA 3 24 Jan 18:59:40 19:04:01 83° 75° (ENE) 19:08:14 145.822/145.860
STARS 24 Jan 19:10:04 19:11:45 12° 300° (WNW) 19:13:27 437.465
CUBEBUG 2 24 Jan 19:22:46 19:26:29 33° 70° (ENE) 19:30:12 437.445
FUNcube-1 24 Jan 19:24:58 19:26:49 13° 62° (ENE) 19:28:40 145.935
COMPASS 1 24 Jan 19:25:34 19:29:27 38° 71° (ENE) 19:33:22 437.405
CANX-2 24 Jan 19:28:10 19:32:25 75° 258° (WSW) 19:36:44 2200.000
SEEDS 24 Jan 19:29:07 19:33:18 64° 75° (ENE) 19:37:32 437.485
AAUSAT CUBESAT 2 24 Jan 19:31:59 19:35:46 34° 71° (ENE) 19:39:35 437.432
NOAA 18 24 Jan 19:36:46 19:41:15 25° 265° (W) 19:45:46 137.9125
UWE-3 24 Jan 19:40:59 19:44:41 33° 70° (ENE) 19:48:26 435.000/436.395/437.385
STRAND 1 24 Jan 19:46:07 19:51:12 55° 100° (E) 19:56:14 437.568
ZACube-1 24 Jan 19:49:09 19:52:31 25° 68° (ENE) 19:55:55 437.345
AIST 2 24 Jan 19:51:54 19:55:41 34° 311° (NW) 19:59:32 435.215
ISS 24 Jan 19:52:40 19:53:43 11° 130° (SE) 19:54:44 145.825
Cosmos 2499 24 Jan 19:58:36 20:06:55 82° 278° (W) 20:14:39 435.465 / 435.565
DELFI C3 24 Jan 20:09:12 20:10:34 11° 62° (ENE) 20:11:55 145.870
Oscar 11 24 Jan 20:15:41 20:19:44 41° 71° (ENE) 20:23:49 145.826/435.025
GONETS M04 24 Jan 20:30:56 20:39:36 70° 281° (W) 20:48:23
CUTE 1.7 + AOD 2 24 Jan 20:35:24 20:38:13 17° 268° (W) 20:41:02 437.475
HO-68 24 Jan 20:47:41 20:53:24 25° 267° (W) 20:59:08 435.675
PRISM 24 Jan 20:50:05 20:51:24 11° 90° (E) 20:52:43 437.425
HUMSAT D 24 Jan 20:53:17 20:56:19 20° 66° (ENE) 20:59:23 437.325/437.525
FUNcube-1 24 Jan 20:58:27 21:02:32 61° 260° (W) 21:06:41 145.935
CUBEBUG 2 24 Jan 21:00:04 21:03:11 20° 267° (W) 21:06:19 437.445
COMPASS 1 24 Jan 21:02:08 21:05:07 19° 267° (W) 21:08:08 437.405
SEEDS 24 Jan 21:08:00 21:09:25 11° 271° (W) 21:10:50 437.485
AAUSAT CUBESAT 2 24 Jan 21:08:09 21:11:18 21° 267° (W) 21:14:29 437.432
UWE-3 24 Jan 21:18:06 21:21:14 21° 267° (W) 21:24:23 435.000/436.395/437.385
AO-85 24 Jan 21:21:26 21:25:06 36° 50° (NE) 21:28:43 145.980
ZACube-1 24 Jan 21:25:07 21:28:42 28° 265° (W) 21:32:20 437.345
STRAND 1 24 Jan 21:26:15 21:29:57 20° 298° (WNW) 21:33:39 437.568
ISS 24 Jan 21:26:27 21:29:43 90° 295° (WNW) 21:32:59 145.825
ANTELSAT 24 Jan 21:34:12 21:36:19 13° 90° (E) 21:38:26 437.575/2403.000
DELFI C3 24 Jan 21:40:50 21:44:49 65° 259° (W) 21:48:50 145.870
RS-15 24 Jan 21:51:35 22:01:02 29° 102° (ESE) 22:10:45 29.354- 29.394
Oscar 11 24 Jan 21:53:02 21:56:02 18° 268° (W) 21:59:04 145.826/435.025
Cosmos 2499 24 Jan 21:56:23 22:01:10 17° 298° (WNW) 22:05:48 435.465 / 435.565
PRISM 24 Jan 22:23:02 22:27:05 60° 286° (WNW) 22:31:05 437.425
AISAT 24 Jan 22:23:57 22:25:23 11° 60° (ENE) 22:26:49 437.250
BY70-1 24 Jan 22:26:42 22:29:43 46° 73° (ENE) 22:32:54 436.1900
HUMSAT D 24 Jan 22:27:53 22:31:41 36° 263° (W) 22:35:33 437.325/437.525
GONETS M04 24 Jan 22:33:46 22:38:18 15° 304° (NW) 22:42:52
UNISAT 6 24 Jan 22:40:34 22:45:03 66° 101° (ESE) 22:49:36 437.425
SPROUT 24 Jan 22:47:54 22:49:56 13° 62° (ENE) 22:51:57 437.525
TIGRISAT 24 Jan 22:52:21 22:56:51 82° 104° (ESE) 23:01:25 435.000
VELOX 1 24 Jan 22:54:45 22:58:10 22° 66° (ENE) 23:01:35 145.980
BEESAT 3 24 Jan 22:55:58 22:58:30 16° 41° (NE) 23:01:02 437.485
AO-85 24 Jan 23:02:21 23:05:14 20° 247° (WSW) 23:08:08 145.980
ESTCUBE 1 24 Jan 23:03:43 23:08:14 72° 74° (ENE) 23:12:47 437.505/2401.250
ISS 24 Jan 23:03:53 23:06:32 22° 345° (NNW) 23:09:11 145.825
ANTELSAT 24 Jan 23:08:56 23:13:23 63° 286° (WNW) 23:17:55 437.575/2403.000
QB50P1 24 Jan 23:09:08 23:10:50 12° 90° (E) 23:12:32 145.935-145.965
DX 1 24 Jan 23:11:09 23:13:51 16° 63° (ENE) 23:16:34 434.975-435.025
POLYITAN 1 24 Jan 23:14:23 23:16:42 14° 91° (E) 23:19:01 437.675
JAS-2 24 Jan 23:15:17 23:22:34 56° 100° (E) 23:30:14 435.910
QB50P2 24 Jan 23:15:35 23:18:11 16° 92° (E) 23:20:47 145.880/145.840
CUBEBUG 1 24 Jan 23:27:07 23:31:30 75° 74° (ENE) 23:35:53 437.445
50 SAT 24 Jan 23:33:42 23:36:59 35° 72° (ENE) 23:40:18 437.505
POPSAT HIP 1 24 Jan 23:35:09 23:38:33 23° 94° (E) 23:41:58 437.405
DUCHIFAT 1 24 Jan 23:39:38 23:42:58 22° 94° (E) 23:46:18 145.980
PCSat 24 Jan 23:46:24 23:51:32 46° 113° (ESE) 23:56:42 145.827
NANOSAT C BR1 24 Jan 23:47:34 23:51:18 30° 96° (E) 23:55:01 145.865
BEESAT 2 24 Jan 23:51:11 23:54:28 23° 45° (NE) 23:57:44 435.950
AIST 1 24 Jan 23:53:22 23:56:14 17° 70° (ENE) 23:59:05
BUGSAT 1 24 Jan 23:55:33 23:56:46 11° 90° (E) 23:57:59 437.445
YUBILEINY 24 Jan 23:56:15 00:03:24 27° 65° (ENE) 00:10:28 435.215
AISAT 24 Jan 23:56:46 00:01:12 80° 257° (WSW) 00:05:39 437.250
TISAT 1 24 Jan 23:58:56 00:00:12 11° 61° (ENE) 00:01:28 437.305
RS-15 25 Jan 00:00:11 00:12:07 83° 304° (NW) 00:24:36 29.354- 29.394
Cosmos 2504 25 Jan 00:01:22 00:03:30 11° 56° (NE) 00:05:37 435.465 / 435.565
PHONESAT 2.4 25 Jan 00:16:59 00:18:35 18° 160° (SSE) 00:20:11 2401.200-2431.200
UNISAT 6 25 Jan 00:18:58 00:21:15 14° 298° (WNW) 00:23:33 437.425
SPROUT 25 Jan 00:21:08 00:25:20 62° 259° (WSW) 00:29:33 437.525
VELOX 1 25 Jan 00:30:16 00:34:24 37° 262° (W) 00:38:32 145.980
TIGRISAT 25 Jan 00:31:27 00:32:54 11° 299° (WNW) 00:34:21 435.000
BEESAT 3 25 Jan 00:32:33 00:36:32 66° 239° (WSW) 00:40:29 437.485
UKube-1 25 Jan 00:34:13 00:38:32 87° 81° (E) 00:42:53 .
ISS 25 Jan 00:41:33 00:43:50 17° 5° (N) 00:46:08 145.825
QB50P1 25 Jan 00:42:48 00:46:59 60° 286° (WNW) 00:51:08 145.935-145.965
ESTCUBE 1 25 Jan 00:44:01 00:45:31 11° 271° (W) 00:47:02 437.505/2401.250
DX 1 25 Jan 00:45:22 00:49:38 51° 260° (W) 00:53:54 434.975-435.025
POLYITAN 1 25 Jan 00:48:39 00:52:47 51° 287° (WNW) 00:56:54 437.675
Cosmos 2491 25 Jan 00:49:27 00:56:10 26° 81° (E) 01:02:55 435.465 / 435.565
QB50P2 25 Jan 00:50:09 00:54:13 46° 288° (WNW) 00:58:16 145.880/145.840
ITUPSAT 1 25 Jan 00:55:46 00:57:11 11° 58° (ENE) 00:58:38 437.325
JAS-2 25 Jan 01:00:50 01:07:14 34° 296° (WNW) 01:14:00 435.910
CUBEBUG 1 25 Jan 01:07:42 01:08:17 10° 271° (W) 01:08:51 437.445
50 SAT 25 Jan 01:08:20 01:10:19 14° 268° (W) 01:12:20 437.505
POPSAT HIP 1 25 Jan 01:10:37 01:14:21 31° 291° (WNW) 01:18:04 437.405
DUCHIFAT 1 25 Jan 01:14:56 01:18:41 32° 291° (WNW) 01:22:25 145.980
Gurwin Techsat 1B 25 Jan 01:19:21 01:22:20 15° 90° (E) 01:25:20 435.225
NANOSAT C BR1 25 Jan 01:23:29 01:26:53 24° 293° (WNW) 01:30:18 145.865
BEESAT 25 Jan 01:24:27 01:28:02 22° 64° (ENE) 01:31:37 436.000
SWISSCUBE 25 Jan 01:26:20 01:30:09 25° 65° (ENE) 01:34:01 437.505
BUGSAT 1 25 Jan 01:28:31 01:32:31 60° 285° (WNW) 01:36:32 437.445
BEESAT 2 25 Jan 01:28:36 01:32:23 39° 243° (WSW) 01:36:08 435.950
AIST 1 25 Jan 01:30:02 01:34:01 40° 268° (W) 01:37:59
PCSat 25 Jan 01:30:24 01:35:06 29° 312° (NW) 01:39:50 145.827
TISAT 1 25 Jan 01:31:05 01:35:14 72° 257° (WSW) 01:39:25 437.305
PHONESAT 2.4 25 Jan 01:49:52 01:51:59 42° 176° (S) 01:54:06 2401.200-2431.200
Cosmos 2504 25 Jan 01:51:16 01:58:35 67° 79° (E) 02:05:41 435.465 / 435.565
YUBILEINY 25 Jan 01:52:16 02:01:03 72° 267° (W) 02:09:43 435.215
Oscar 19 25 Jan 02:02:30 02:07:41 69° 102° (ESE) 02:12:47 437.125/150
MOZHAYETS 4 25 Jan 02:12:29 02:15:43 19° 64° (ENE) 02:18:57
RS-15 25 Jan 02:16:03 02:26:47 34° 333° (NNW) 02:37:45 29.354- 29.394
ISS 25 Jan 02:17:54 02:20:59 37° 25° (NNE) 02:24:02 145.825
ITUPSAT 1 25 Jan 02:29:29 02:34:15 88° 75° (ENE) 02:39:04 437.325
CUSAT 1 25 Jan 02:32:07 02:37:28 44° 89° (E) 02:44:08 437.405
AIST 2 25 Jan 02:33:57 02:37:30 25° 45° (NE) 02:41:03 435.215
M-CUBED/EXP-1 PRIME 25 Jan 02:41:31 02:44:28 19° 62° (ENE) 02:47:17 437.505
Cosmos 2491 25 Jan 02:43:32 02:52:11 69° 281° (W) 03:00:56 435.465 / 435.565
AO-7 25 Jan 02:46:08 02:51:35 19° 90° (E) 02:56:59 29.400- 29.500
ITAMSAT 1 25 Jan 02:57:09 03:01:21 24° 94° (E) 03:05:32 435.822/435.867
Gurwin Techsat 1B 25 Jan 02:57:29 03:02:48 71° 287° (WNW) 03:08:05 435.225
BEESAT 25 Jan 03:00:58 03:05:30 44° 261° (W) 03:10:04 436.000
SWISSCUBE 25 Jan 03:03:20 03:07:44 37° 262° (W) 03:12:12 437.505
AUBIESAT-1 25 Jan 03:12:55 03:16:34 32° 66° (ENE) 03:20:00 437.475
CUBESAT XI-V 25 Jan 03:13:08 03:15:25 14° 61° (ENE) 03:17:42 437.345
PHONESAT 2.4 25 Jan 03:23:28 03:25:29 30° 192° (SSW) 03:27:29 2401.200-2431.200
Oscar 19 25 Jan 03:43:15 03:46:25 17° 300° (WNW) 03:49:34 437.125/150
Cosmos 2504 25 Jan 03:45:59 03:51:10 21° 279° (W) 03:56:16 435.465 / 435.565
MOZHAYETS 4 25 Jan 03:48:06 03:52:31 47° 261° (W) 03:56:58
KKS-1 25 Jan 03:50:02 03:54:24 60° 73° (ENE) 03:58:46 437.445
YUBILEINY 25 Jan 03:52:24 03:56:06 13° 287° (WNW) 03:59:49 435.215
ISS 25 Jan 03:54:29 03:57:24 31° 222° (SW) 04:00:18 145.825
AIST 2 25 Jan 04:12:08 04:16:06 39° 243° (WSW) 04:20:01 435.215
DANDE 25 Jan 04:14:16 04:18:36 86° 281° (WNW) 04:24:32 436.750
CUSAT 1 25 Jan 04:14:19 04:19:35 33° 294° (WNW) 04:26:00 437.405
M-CUBED/EXP-1 PRIME 25 Jan 04:14:44 04:18:43 40° 255° (WSW) 04:22:29 437.505
STARS 25 Jan 04:28:39 04:32:59 71° 74° (ENE) 04:37:21 437.465
RS-15 25 Jan 04:34:34 04:44:27 26° 8° (N) 04:54:15 29.354- 29.394
ITAMSAT 1 25 Jan 04:36:03 04:40:59 44° 291° (WNW) 04:45:54 435.822/435.867
AO-7 25 Jan 04:36:58 04:45:24 89° 107° (ESE) 04:53:45 29.400- 29.500
BRITE-PL 25 Jan 04:37:00 04:40:17 19° 90° (E) 04:43:24 437.365/2234.400
Gurwin Techsat 1B 25 Jan 04:40:51 04:41:47 10° 305° (NW) 04:42:44 435.225
GONETS M04 25 Jan 04:46:06 04:49:58 13° 54° (NE) 04:53:49
Cosmos 2491 25 Jan 04:46:30 04:50:55 15° 304° (NW) 04:55:22 435.465 / 435.565
CUBESAT XI-V 25 Jan 04:47:28 04:52:10 74° 258° (WSW) 04:56:54 437.345
AUBIESAT-1 25 Jan 04:47:46 04:50:59 22° 259° (W) 04:54:03 437.475
O/OREOS (USA 219) 25 Jan 04:51:24 04:54:22 18° 100° (E) 04:57:21 437.305
HORYU 2 25 Jan 04:52:24 04:53:06 10° 89° (E) 04:53:47 437.375
STRAND 1 25 Jan 05:27:38 05:29:27 12° 57° (ENE) 05:31:15 437.568
KKS-1 25 Jan 05:29:13 05:31:20 13° 269° (W) 05:33:28 437.445
Cubesat XI-IV 25 Jan 05:31:47 05:33:28 11° 88° (E) 05:35:10 437.490
Cosmos 2499 25 Jan 05:49:22 05:55:43 34° 71° (ENE) 06:02:01 435.465 / 435.565
GOMX 1 25 Jan 05:51:18 05:55:24 40° 98° (E) 05:59:19 467.674
SO-50 25 Jan 05:54:52 05:57:25 15° 109° (ESE) 05:59:58 436.795
DANDE 25 Jan 06:01:06 06:02:51 11° 307° (NW) 06:04:43 436.750
LilacSat-2 25 Jan 06:01:33 06:04:36 21° 94° (E) 06:07:37 437.200
DOVE 4 25 Jan 06:03:54 06:07:02 20° 94° (E) 06:10:10 437.250
STARS 25 Jan 06:08:45 06:09:49 11° 271° (W) 06:10:52 437.465
BRITE-PL 25 Jan 06:14:35 06:19:04 42° 290° (WNW) 06:23:13 437.365/2234.400
NOAA 18 25 Jan 06:17:28 06:20:56 17° 91° (E) 06:24:24 137.9125
CUTE-I 25 Jan 06:24:10 06:29:06 37° 97° (E) 06:34:01 437.470
HORYU 2 25 Jan 06:25:41 06:30:09 77° 285° (WNW) 06:34:37 437.375
O/OREOS (USA 219) 25 Jan 06:29:06 06:33:23 45° 298° (WNW) 06:37:43 437.305
AO-7 25 Jan 06:31:00 06:37:09 24° 309° (NW) 06:43:16 29.400- 29.500
GONETS M04 25 Jan 06:40:05 06:48:53 63° 78° (ENE) 06:57:38
RS-15 25 Jan 06:49:15 07:01:08 48° 40° (NE) 07:12:37 29.354- 29.394
PCSat 25 Jan 06:52:32 06:53:37 11° 31° (NNE) 06:54:43 145.827
CINEMA 3 25 Jan 06:53:59 06:56:50 17° 93° (E) 06:59:43 145.822/145.860
NOAA 15 25 Jan 06:58:41 07:04:02 78° 103° (ESE) 07:09:19 137.62
STRAND 1 25 Jan 07:02:43 07:07:48 84° 74° (ENE) 07:12:57 437.568
Cubesat XI-IV 25 Jan 07:08:52 07:14:15 90° 284° (WNW) 07:19:37 437.490
CANX-2 25 Jan 07:13:16 07:16:14 18° 92° (E) 07:19:11 2200.000
GOMX 1 25 Jan 07:30:14 07:33:10 18° 296° (WNW) 07:36:02 467.674
SO-50 25 Jan 07:32:38 07:37:21 70° 306° (NW) 07:42:00 436.795
LilacSat-2 25 Jan 07:35:32 07:38:53 28° 290° (WNW) 07:42:13 437.200
DOVE 4 25 Jan 07:41:07 07:44:50 32° 290° (WNW) 07:48:32 437.250
PRISM 25 Jan 07:41:08 07:41:59 11° 60° (ENE) 07:42:51 437.425
Cosmos 2499 25 Jan 07:42:21 07:48:56 42° 271° (W) 07:55:30 435.465 / 435.565
NOAA 18 25 Jan 07:56:38 08:02:03 66° 288° (WNW) 08:07:28 137.9125
CUTE-I 25 Jan 08:04:25 08:09:01 30° 294° (WNW) 08:13:37 437.470
HO-68 25 Jan 08:12:22 08:19:30 63° 103° (ESE) 08:26:35 435.675
CUTE 1.7 + AOD 2 25 Jan 08:17:33 08:21:53 79° 101° (ESE) 08:26:09 437.475
CINEMA 3 25 Jan 08:30:08 08:34:09 42° 288° (WNW) 08:38:17 145.822/145.860
PCSat 25 Jan 08:33:15 08:38:28 45° 53° (NE) 08:43:40 145.827
ANTELSAT 25 Jan 08:34:38 08:36:28 13° 61° (ENE) 08:38:18 437.575/2403.000
GONETS M04 25 Jan 08:37:49 08:45:03 29° 278° (W) 08:52:16
NOAA 15 25 Jan 08:40:05 08:43:08 16° 301° (WNW) 08:46:11 137.62
COMPASS 1 25 Jan 08:42:28 08:46:41 65° 101° (E) 08:50:49 437.405
FUNcube-1 25 Jan 08:45:37 08:49:14 24° 94° (E) 08:52:53 145.935
STRAND 1 25 Jan 08:45:57 08:47:37 11° 272° (W) 08:49:18 437.568
SEEDS 25 Jan 08:47:35 08:51:51 72° 285° (WNW) 08:56:03 437.485
CUBEBUG 2 25 Jan 08:48:05 08:52:29 72° 102° (ESE) 08:57:01 437.445
AAUSAT CUBESAT 2 25 Jan 08:48:10 08:52:18 57° 101° (E) 08:56:23 437.432
CANX-2 25 Jan 08:48:12 08:52:16 41° 289° (WNW) 08:56:17 2200.000
Cubesat XI-IV 25 Jan 08:51:01 08:53:32 14° 303° (WNW) 08:56:03 437.490
RS-15 25 Jan 09:02:10 09:14:14 64° 246° (WSW) 09:25:49 29.354- 29.394
UWE-3 25 Jan 09:04:59 09:09:25 69° 102° (ESE) 09:13:56 435.000/436.395/437.385
ZACube-1 25 Jan 09:11:26 09:15:45 48° 99° (E) 09:20:08 437.345
PRISM 25 Jan 09:12:29 09:16:39 78° 256° (WSW) 09:20:50 437.425
SO-50 25 Jan 09:16:17 09:18:38 14° 325° (NW) 09:20:59 436.795
DELFI C3 25 Jan 09:18:32 09:20:48 15° 91° (E) 09:23:03 145.870
JAS-2 25 Jan 09:30:25 09:34:42 23° 59° (ENE) 09:39:22 435.910
Oscar 11 25 Jan 09:37:38 09:42:01 77° 102° (ESE) 09:46:22 145.826/435.025
NOAA 18 25 Jan 09:41:12 09:41:40 10° 307° (NW) 09:42:10 137.9125
